Regional Weather Roundup
Issued by NWS

Home | Current Version | Previous Version | Graphics & Text | Print | Product List | Glossary On
Versions: 1 2 3 4 5 6 7 8 9 10 11 12 13 14 15 16 17 18 19 20 21 22 23 24 25 26 27 28 29 30 31 32 33 34 35 36 37 38 39 40 41 42 43 44 45 46 47 48 49 50
828
ASUS43 KLSX 270207
RWRMO

WEATHER SUMMARY FOR MISSOURI
NATIONAL WEATHER SERVICE SPRINGFIELD MO
900 PM CDT WED JUL 26 2017

NOTE: "FAIR" INDICATES FEW OR NO CLOUDS BELOW 12,000 FEET WITH NO
       SIGNIFICANT WEATHER AND/OR OBSTRUCTIONS TO VISIBILITY.
       CURRENT SKY AND/OR WEATHER CONDITIONS ARE NOT AVAILABLE FOR
       CHILLICOTHE AND FARMINGTON.

MOZ001>031-035>038-043-044-053-054-270300-
...NORTHERN AND WESTERN MISSOURI...

CITY           SKY/WX    TMP DP  RH WIND       PRES   REMARKS
KANSAS CTY INT TSTM      77  75  93 SE6       29.97R FOG
KANSAS C DTWN  CLOUDY    77  77 100 NE13G18   29.92R THUNDER FOG
LEE`S SUMMIT   LGT RAIN  77  77 100 E6        29.95F
ST JOSEPH      CLOUDY    79  77  94 S7        29.95S
CHILLICOTHE      N/A     79  79 100 CALM      29.96S
KIRKSVILLE     CLOUDY    77  73  87 NE3       29.97F

$$
MOZ066>068-077>081-088>096-101>105-270300-
...SOUTHWEST MISSOURI...

CITY           SKY/WX    TMP DP  RH WIND       PRES   REMARKS
SPRINGFIELD    PTCLDY    85  72  65 S9        29.99F HX  91
JOPLIN         PTCLDY    87  74  64 S9        29.95F HX  95
BRANSON        MOCLDY    82  70  65 CALM      30.04R

$$
MOZ032>034-039>042-045>050-055>058-069>072-270300-
...CENTRAL MISSOURI...

CITY           SKY/WX    TMP DP  RH WIND       PRES   REMARKS
COLUMBIA       MOCLDY    84  78  82 N5        29.96F HX  95
JEFFERSON CITY CLOUDY    85  78  80 CALM      29.94F HX  96
ROLLA          MOCLDY    85  72  65 S5        30.00S HX  91
SEDALIA        MOCLDY    82  81  96 N5        29.97F HX  95
WHITEMAN AFB   LGT RAIN  80  80 100 N10       29.95S
OSAGE BEACH    CLOUDY    86  74  67 CALM      29.97F HX  94

$$
MOZ051-052-059>065-270300-
...EAST CENTRAL MISSOURI...

CITY           SKY/WX    TMP DP  RH WIND       PRES   REMARKS
ST LOUIS INTL  CLOUDY    87  71  58 SE8       29.98R HX  93
SPIRIT OF STL  CLOUDY    86  73  65 S7        29.95R HX  93
ST CHARLES     CLOUDY    84  73  69 E7        29.96R HX  90

$$
MOZ072>076-082>087-097>100-106>115-270300-
...SOUTH CENTRAL AND SOUTHEAST MISSOURI...

CITY           SKY/WX    TMP DP  RH WIND       PRES   REMARKS
CAPE GIRARDEAU CLOUDY    82  74  76 S7        29.99R
FARMINGTON     CLOUDY    81  73  76 CALM      30.00F
POPLAR BLUFF   PTCLDY    84  75  74 S6        29.99R HX  92
WEST PLAINS    PTCLDY    85  71  63 S5        30.04S HX  90

$$



USA.gov is the U.S. government's official web portal to all federal, state and local government web resources and services.